[[{"header":{"parameterUnit":"m.s-1","parameterCategory":1,"la1":30.2992,"la2":30.254,"lo1":-89.0895,"lo2":-89.0443,"dy":0.0025,"dx":0.0025,"nx":19,"ny":19,"refTime":"2026-05-05T03:00:00:Z","depth":0,"parameterNumber":2,"parameterNumberName":"U-component_of_WINDS"},"data":[0,0,0,-1.4331,-1.4331,-1.4357,-1.4357,-1.4385,-1.4385,0,0,0,0,0,0,0,0,0,0,0,-1.4319,-1.4319,-1.4331,-1.4331,-1.4357,-1.4357,-1.4385,-1.4385,0,0,0,0,0,0,0,0,0,0,0,-1.4319,-1.4319,-1.4319,-1.4331,-1.4357,-1.4357,-1.4385,-1.4367,0,0,0,0,0,0,0,0,0,0,-1.4343,-1.4329,-1.4319,-1.4319,-1.4331,-1.4357,-1.4357,-1.4366,-1.4368,-1.4371,0,-1.4372,0,-1.4379,-1.4386,-1.4387,0,0,0,-1.4334,-1.4327,-1.4338,-1.4319,-1.4331,-1.4357,-1.4346,-1.4368,-1.437,-1.4373,-1.4372,-1.4373,-1.4379,-1.4387,-1.4387,-1.4391,-1.4391,0,0,-1.4332,-1.4322,-1.4336,-1.4339,-1.4334,-1.4345,-1.4347,-1.4369,-1.4367,-1.4372,-1.4374,-1.438,-1.4387,-1.4387,-1.4391,-1.4391,0,0,0,-1.4326,-1.4321,-1.4331,-1.4337,-1.4342,-1.4346,-1.4348,-1.4366,-1.437,-1.4374,-1.438,-1.4387,-1.4387,-1.4391,-1.4391,-1.4374,0,0,0,-1.4326,-1.4317,-1.433,-1.4324,-1.4342,-1.4354,-1.4344,-1.4369,-1.4371,-1.438,-1.4387,-1.4387,-1.4391,-1.4391,-1.4375,-1.4368,0,0,0,-1.4319,-1.4317,-1.4319,-1.4323,-1.4334,-1.4354,-1.436,-1.4369,-1.4375,-1.4387,-1.4387,-1.4391,-1.4391,-1.4376,-1.4369,-1.4366,0,0,0,-1.4309,-1.4304,-1.4319,-1.4317,-1.4334,-1.4344,-1.436,-1.4368,-1.4377,-1.4387,-1.4391,-1.4391,-1.4376,-1.437,-1.4366,-1.436,-1.4357,0,0,-1.4298,-1.4303,-1.4302,-1.4316,-1.4321,-1.4341,-1.4344,-1.4362,-1.4373,-1.4384,-1.4385,-1.4375,-1.4369,-1.4366,-1.4344,-1.4341,0,0,0,-1.4295,-1.4295,-1.4299,-1.4306,-1.4319,-1.433,-1.4348,-1.4355,-1.4365,-1.4377,-1.4374,-1.4371,-1.4369,-1.4367,-1.4364,-1.4363,-1.4389,-1.4389,-1.4389,-1.4264,-1.4278,-1.4279,-1.4296,-1.4303,-1.4322,-1.4329,-1.4342,-1.4354,-1.4353,-1.4356,-1.4341,-1.4338,-1.4336,-1.4335,-1.4355,-1.4355,-1.4355,-1.4355,-1.4249,-1.425,-1.4267,-1.4273,-1.4289,-1.4294,-1.4313,-1.4322,-1.4329,-1.434,-1.4339,-1.4348,-1.4332,-1.4332,-1.4354,-1.4354,-1.4354,-1.4354,-1.4354,-1.4229,-1.4232,-1.424,-1.4253,-1.4261,-1.4279,-1.4286,-1.43,-1.4313,-1.4313,-1.4317,-1.4318,-1.4319,-1.4314,-1.4314,-1.4314,-1.4314,-1.4314,-1.4314,-1.4205,-1.4215,-1.4218,-1.4233,-1.4239,-1.425,-1.427,-1.4277,-1.4289,-1.4299,-1.4299,-1.4311,-1.4329,-1.4332,-1.4313,-1.4313,-1.4313,-1.4313,-1.4313,-1.4182,-1.419,-1.4195,-1.4202,-1.422,-1.4227,-1.4246,-1.4259,-1.4267,-1.427,-1.4283,-1.4294,-1.43,-1.4302,-1.4305,-1.428,-1.428,-1.428,-1.428,-1.4165,-1.417,-1.4178,-1.4188,-1.42,-1.4217,-1.4223,-1.4239,-1.4257,-1.4263,-1.4269,-1.4275,-1.4276,-1.4282,-1.4284,-1.4287,-1.4258,-1.4258,-1.4258,-1.4152,-1.4158,-1.416,-1.4177,-1.4193,-1.4206,-1.4212,-1.4223,-1.4246,-1.4257,-1.4268,-1.4269,-1.4278,-1.4281,-1.4291,-1.4295,-1.43,0,0]},{"header":{"parameterUnit":"m.s-1","parameterCategory":1,"la1":30.2992,"la2":30.254,"lo1":-89.0895,"lo2":-89.0443,"dy":0.0025,"dx":0.0025,"nx":19,"ny":19,"refTime":"2026-05-05T03:00:00:Z","depth":0,"parameterNumber":3,"parameterNumberName":"V-component_of_WINDS"},"data":[0,0,0,5.0918,5.092,5.1019,5.1019,5.1147,5.1148,0,0,0,0,0,0,0,0,0,0,0,5.0893,5.0894,5.0918,5.092,5.1018,5.1019,5.1147,5.1148,0,0,0,0,0,0,0,0,0,0,0,5.0892,5.0894,5.0895,5.0921,5.1018,5.1019,5.1147,5.1071,0,0,0,0,0,0,0,0,0,0,5.0974,5.0956,5.0893,5.0895,5.0921,5.1018,5.1019,5.1067,5.1075,5.1104,0,5.1134,0,5.1144,5.1157,5.1158,0,0,0,5.0916,5.0949,5.0972,5.0895,5.0922,5.1018,5.0973,5.1072,5.1081,5.1116,5.1136,5.114,5.1146,5.1158,5.1159,5.1348,5.1349,0,0,5.0911,5.0912,5.0966,5.0979,5.0967,5.097,5.0976,5.1077,5.1098,5.1136,5.1143,5.1148,5.1159,5.116,5.1347,5.1348,0,0,0,5.0898,5.0908,5.0929,5.0974,5.0992,5.0973,5.098,5.1093,5.11,5.1145,5.1149,5.116,5.1161,5.1346,5.1347,5.1404,0,0,0,5.0894,5.0901,5.0927,5.0928,5.099,5.1044,5.0994,5.1093,5.1105,5.1149,5.116,5.1163,5.1344,5.1346,5.14,5.143,0,0,0,5.0885,5.09,5.0916,5.0928,5.0971,5.1043,5.1055,5.1096,5.1108,5.1158,5.1163,5.1344,5.1346,5.1396,5.1424,5.1482,0,0,0,5.0874,5.0962,5.0917,5.1016,5.097,5.1078,5.1055,5.1134,5.1183,5.1161,5.1344,5.1347,5.1395,5.142,5.1478,5.1532,5.1554,0,0,5.0986,5.0975,5.1034,5.0997,5.1113,5.1063,5.1186,5.1229,5.123,5.1308,5.1312,5.1401,5.1424,5.1481,5.1677,5.1695,0,0,0,5.107,5.1112,5.1143,5.1192,5.1229,5.1263,5.1287,5.1302,5.1369,5.1271,5.1437,5.145,5.1484,5.1509,5.1525,5.1554,5.1359,5.1358,5.1358,5.1229,5.123,5.1327,5.134,5.1388,5.1413,5.1451,5.1476,5.146,5.1499,5.1522,5.1642,5.1672,5.1683,5.1714,5.155,5.155,5.155,5.155,5.1393,5.1454,5.1434,5.1522,5.1521,5.1593,5.162,5.1606,5.1672,5.1624,5.1653,5.1601,5.1703,5.1729,5.1555,5.1554,5.1553,5.1553,5.1553,5.1499,5.1528,5.1548,5.1621,5.1677,5.1685,5.1751,5.1746,5.1742,5.1771,5.1796,5.1795,5.1795,5.1784,5.1784,5.1784,5.1785,5.1785,5.1785,5.16,5.1621,5.1679,5.1728,5.176,5.1801,5.1828,5.1858,5.1891,5.1882,5.1882,5.1863,5.1713,5.1676,5.1792,5.1791,5.179,5.1789,5.1789,5.1769,5.1731,5.182,5.1853,5.191,5.1966,5.196,5.2023,5.2047,5.208,5.2054,5.1944,5.1932,5.192,5.189,5.2053,5.2053,5.2053,5.2053,5.1858,5.1853,5.1945,5.1998,5.2048,5.2053,5.2153,5.2174,5.2189,5.2204,5.218,5.2139,5.2126,5.2122,5.2105,5.2077,5.2285,5.2285,5.2285,5.1963,5.1962,5.2049,5.2068,5.2112,5.215,5.2244,5.2303,5.2312,5.2294,5.2216,5.2206,5.214,5.2118,5.2099,5.2073,5.2021,0,0]}]]